Stündliche Wetter Abadan

Heute, 24 Juni, Donnerstag

Zeit Temperatur Niederschläge Wind Luftdruck Luftfeuchtigkeit
00:00 +40°C° 0 mm 8 m/S 751 mmHg 9%
01:00 +40°C° 0 mm 7 m/S 751 mmHg 11%
02:00 +39°C° 0 mm 7 m/S 751 mmHg 13%
03:00 +38°C° 0 mm 7 m/S 751 mmHg 14%
04:00 +38°C° 0 mm 6 m/S 751 mmHg 15%
05:00 +36°C° 0 mm 6 m/S 751 mmHg 15%
06:00 +36°C° 0 mm 6 m/S 751 mmHg 16%
07:00 +40°C° 0 mm 7 m/S 751 mmHg 14%
08:00 +43°C° 0 mm 8 m/S 751 mmHg 12%
09:00 +45°C° 0 mm 9 m/S 751 mmHg 10%
10:00 +48°C° 0 mm 9 m/S 750 mmHg 8%
11:00 +50°C° 0 mm 8 m/S 750 mmHg 7%
12:00 +52°C° 0 mm 8 m/S 750 mmHg 6%
13:00 +52°C° 0 mm 7 m/S 749 mmHg 5%
14:00 +53°C° 0 mm 7 m/S 749 mmHg 5%
15:00 +54°C° 0 mm 6 m/S 748 mmHg 4%
16:00 +53°C° 0 mm 7 m/S 748 mmHg 4%
17:00 +52°C° 0 mm 7 m/S 748 mmHg 4%
18:00 +52°C° 0 mm 7 m/S 748 mmHg 4%
19:00 +50°C° 0 mm 7 m/S 748 mmHg 5%
20:00 +48°C° 0 mm 8 m/S 748 mmHg 6%
21:00 +46°C° 0 mm 8 m/S 749 mmHg 6%
22:00 +45°C° 0 mm 7 m/S 749 mmHg 7%
23:00 +44°C° 0 mm 7 m/S 749 mmHg 8%

Morgen, 25 Juni, Freitag

Zeit Temperatur Niederschläge Wind Luftdruck Luftfeuchtigkeit
00:00 +42°C° 0 mm 6 m/S 749 mmHg 9%
01:00 +41°C° 0 mm 6 m/S 749 mmHg 9%
02:00 +40°C° 0 mm 6 m/S 749 mmHg 10%
03:00 +39°C° 0 mm 5 m/S 749 mmHg 11%
04:00 +37°C° 0 mm 5 m/S 749 mmHg 12%
05:00 +37°C° 0 mm 4 m/S 749 mmHg 13%
06:00 +37°C° 0 mm 3 m/S 750 mmHg 13%
07:00 +39°C° 0 mm 3 m/S 750 mmHg 12%
08:00 +42°C° 0 mm 3 m/S 750 mmHg 10%
09:00 +45°C° 0 mm 4 m/S 750 mmHg 9%
10:00 +47°C° 0 mm 3 m/S 750 mmHg 8%
11:00 +48°C° 0 mm 3 m/S 749 mmHg 7%
12:00 +51°C° 0 mm 3 m/S 749 mmHg 5%
13:00 +52°C° 0 mm 3 m/S 748 mmHg 5%
14:00 +53°C° 0 mm 3 m/S 748 mmHg 4%
15:00 +53°C° 0 mm 3 m/S 747 mmHg 4%
16:00 +53°C° 0 mm 3 m/S 747 mmHg 4%
17:00 +52°C° 0 mm 3 m/S 747 mmHg 4%
18:00 +51°C° 0 mm 3 m/S 747 mmHg 4%
19:00 +50°C° 0 mm 4 m/S 747 mmHg 5%
20:00 +48°C° 0 mm 4 m/S 747 mmHg 6%
21:00 +46°C° 0 mm 5 m/S 748 mmHg 6%
22:00 +45°C° 0 mm 5 m/S 748 mmHg 7%
23:00 +43°C° 0 mm 5 m/S 748 mmHg 8%

übermorgen, 26 Juni, Samstag

Zeit Temperatur Niederschläge Wind Luftdruck Luftfeuchtigkeit
00:00 +42°C° 0 mm 5 m/S 748 mmHg 8%
01:00 +41°C° 0 mm 4 m/S 748 mmHg 9%
02:00 +39°C° 0 mm 3 m/S 748 mmHg 10%
03:00 +38°C° 0 mm 2 m/S 748 mmHg 11%
04:00 +38°C° 0 mm 2 m/S 748 mmHg 11%
05:00 +38°C° 0 mm 2 m/S 748 mmHg 11%
06:00 +38°C° 0 mm 2 m/S 748 mmHg 11%
07:00 +41°C° 0 mm 2 m/S 749 mmHg 10%
08:00 +43°C° 0 mm 2 m/S 749 mmHg 9%
09:00 +46°C° 0 mm 3 m/S 749 mmHg 8%
10:00 +48°C° 0 mm 3 m/S 749 mmHg 6%
11:00 +50°C° 0 mm 3 m/S 748 mmHg 5%
12:00 +52°C° 0 mm 3 m/S 748 mmHg 4%
13:00 +53°C° 0 mm 3 m/S 747 mmHg 4%
14:00 +53°C° 0 mm 4 m/S 747 mmHg 4%
15:00 +55°C° 0 mm 4 m/S 746 mmHg 3%
16:00 +53°C° 0 mm 4 m/S 746 mmHg 4%
17:00 +52°C° 0 mm 4 m/S 746 mmHg 4%
18:00 +52°C° 0 mm 4 m/S 746 mmHg 5%
19:00 +50°C° 0 mm 4 m/S 746 mmHg 6%
20:00 +48°C° 0 mm 4 m/S 747 mmHg 7%
21:00 +45°C° 0 mm 4 m/S 747 mmHg 8%
22:00 +44°C° 0 mm 4 m/S 747 mmHg 8%
23:00 +43°C° 0 mm 3 m/S 747 mmHg 9%

27 Juni, Sonntag

Zeit Temperatur Niederschläge Wind Luftdruck Luftfeuchtigkeit
00:00 +43°C° 0 mm 3 m/S 747 mmHg 9%
01:00 +40°C° 0 mm 3 m/S 747 mmHg 19%
02:00 +38°C° 0 mm 3 m/S 748 mmHg 29%
03:00 +36°C° 0 mm 3 m/S 748 mmHg 39%
04:00 +36°C° 0 mm 3 m/S 748 mmHg 38%
05:00 +37°C° 0 mm 2 m/S 749 mmHg 36%
06:00 +37°C° 0 mm 2 m/S 749 mmHg 35%
07:00 +40°C° 0 mm 2 m/S 749 mmHg 27%
08:00 +42°C° 0 mm 1 m/S 750 mmHg 20%
09:00 +45°C° 0 mm 1 m/S 750 mmHg 13%
10:00 +47°C° 0 mm 1 m/S 750 mmHg 11%
11:00 +48°C° 0 mm 1 m/S 750 mmHg 9%
12:00 +50°C° 0 mm 1 m/S 749 mmHg 7%
13:00 +52°C° 0 mm 2 m/S 749 mmHg 6%
14:00 +53°C° 0 mm 3 m/S 749 mmHg 6%
15:00 +55°C° 0 mm 5 m/S 748 mmHg 5%
16:00 +53°C° 0 mm 4 m/S 748 mmHg 6%
17:00 +52°C° 0 mm 4 m/S 748 mmHg 8%
18:00 +51°C° 0 mm 4 m/S 748 mmHg 9%
19:00 +49°C° 0 mm 4 m/S 749 mmHg 12%
20:00 +45°C° 0 mm 4 m/S 749 mmHg 15%
21:00 +43°C° 0 mm 4 m/S 749 mmHg 18%
22:00 +42°C° 0 mm 3 m/S 749 mmHg 21%
23:00 +40°C° 0 mm 3 m/S 749 mmHg 23%

28 Juni, Montag

Zeit Temperatur Niederschläge Wind Luftdruck Luftfeuchtigkeit
00:00 +39°C° 0 mm 3 m/S 749 mmHg 26%
01:00 +38°C° 0 mm 3 m/S 749 mmHg 32%
02:00 +37°C° 0 mm 3 m/S 749 mmHg 39%
03:00 +36°C° 0 mm 3 m/S 749 mmHg 45%
04:00 +36°C° 0 mm 3 m/S 750 mmHg 45%
05:00 +36°C° 0 mm 3 m/S 750 mmHg 44%
06:00 +36°C° 0 mm 3 m/S 750 mmHg 44%
07:00 +39°C° 0 mm 2 m/S 750 mmHg 34%
08:00 +42°C° 0 mm 2 m/S 751 mmHg 24%
09:00 +45°C° 0 mm 1 m/S 751 mmHg 15%
10:00 +48°C° 0 mm 2 m/S 751 mmHg 11%
11:00 +50°C° 0 mm 2 m/S 750 mmHg 8%
12:00 +53°C° 0 mm 3 m/S 750 mmHg 5%
13:00 +53°C° 0 mm 3 m/S 750 mmHg 5%
14:00 +53°C° 0 mm 2 m/S 749 mmHg 5%
15:00 +53°C° 0 mm 2 m/S 749 mmHg 5%
16:00 +52°C° 0 mm 3 m/S 749 mmHg 10%
17:00 +49°C° 0 mm 4 m/S 748 mmHg 15%
18:00 +47°C° 0 mm 5 m/S 748 mmHg 20%
19:00 +45°C° 0 mm 5 m/S 749 mmHg 27%
20:00 +41°C° 0 mm 5 m/S 749 mmHg 35%
21:00 +39°C° 0 mm 6 m/S 749 mmHg 42%
22:00 +37°C° 0 mm 5 m/S 749 mmHg 45%
23:00 +36°C° 0 mm 4 m/S 749 mmHg 48%

29 Juni, Dienstag

Zeit Temperatur Niederschläge Wind Luftdruck Luftfeuchtigkeit
00:00 +36°C° 0 mm 4 m/S 749 mmHg 51%
01:00 +35°C° 0 mm 4 m/S 749 mmHg 51%
02:00 +35°C° 0 mm 4 m/S 749 mmHg 51%
03:00 +35°C° 0 mm 3 m/S 749 mmHg 51%
04:00 +35°C° 0 mm 3 m/S 749 mmHg 47%
05:00 +36°C° 0 mm 3 m/S 750 mmHg 44%
06:00 +36°C° 0 mm 3 m/S 750 mmHg 41%
07:00 +38°C° 0 mm 3 m/S 750 mmHg 34%
08:00 +42°C° 0 mm 3 m/S 751 mmHg 26%
09:00 +43°C° 0 mm 2 m/S 751 mmHg 19%
10:00 +46°C° 0 mm 3 m/S 750 mmHg 16%
11:00 +48°C° 0 mm 3 m/S 750 mmHg 13%
12:00 +51°C° 0 mm 4 m/S 750 mmHg 11%
13:00 +51°C° 0 mm 4 m/S 749 mmHg 11%
14:00 +51°C° 0 mm 4 m/S 749 mmHg 11%
15:00 +53°C° 0 mm 5 m/S 749 mmHg 12%
16:00 +50°C° 0 mm 5 m/S 748 mmHg 14%
17:00 +48°C° 0 mm 5 m/S 748 mmHg 17%
18:00 +46°C° 0 mm 6 m/S 748 mmHg 20%
19:00 +45°C° 0 mm 5 m/S 749 mmHg 23%
20:00 +42°C° 0 mm 5 m/S 749 mmHg 27%
21:00 +40°C° 0 mm 4 m/S 749 mmHg 30%
22:00 +38°C° 0 mm 4 m/S 749 mmHg 33%
23:00 +38°C° 0 mm 3 m/S 749 mmHg 35%
Mehr zeigen

Wir brauchen deine Erlaubnis

Meteoprog und unser Service Anbieter werden persönliche Daten aufbewahren, so wie Cookies, Geräte Bezeichnung oder ähnliche Technologien von deinem Gerät und Prozess, so wie Persönliche Daten Inhalte und Werbungen, genauso wie social Media und den Verkehr zu analysieren.

  • Aufbewahrung und/oder Zugang zu deiner Geräte Informationen.

    Cookies, Geräte Bezeichnung oder andere Informationen, können aufbewahrt oder Zugang zu deinem Gerät erhalten, für den Grund, der oben angegeben wird.

  • Personalisierte Werbung und Inhalte, Messungen, Einblick in das Publikum und Produkt Entwicklung.

    Werbungen und Inhalte können personalisiert werden, basierend auf ein Profil. Mehr Daten können besser personalisierte Werbungen und Inhalte hinzufügen. Werbung und Inhalte können gezeigt und gemessen werden. Einblicke über das Publikum, welche die Werbung gesehen haben und den Inhalt, können abgeleitet werden. So wie Daten können genutzt werden, um es zu verbessern oder die Benutzer Erfahrung zu verbessern das System und die Software.

Wenn du “Ich stimme zu” klickst, erlaubst du uns, die Cookies zu benutzen die Geräte Bezeichnung, den Web oder ähnliche Technologien zu benutzen. Deine Settings, können in deinem Gerät bei deinem Browser geändert werden.

Für den bestimmten Zweck, berechtigten Interessen beruhen darauf, mehr als auf den Inhalt. Du kannst mehr darüber in unseren Privaten und Cookie Politik lesen.